Year,Month,Day,Hour,Minute,Value (Times are PST for temperature in C)
2006,09,26,00,00,13.30
2006,09,26,00,01,13.30
2006,09,26,00,02,13.30
2006,09,26,00,03,13.30
2006,09,26,00,04,13.30
2006,09,26,00,05,13.30
2006,09,26,00,06,13.30
2006,09,26,00,07,13.30
2006,09,26,00,08,13.20
2006,09,26,00,09,13.20
2006,09,26,00,10,13.20
2006,09,26,00,11,13.20
2006,09,26,00,12,13.20
2006,09,26,00,13,13.20
2006,09,26,00,14,13.20
2006,09,26,00,15,13.20
2006,09,26,00,16,13.30
2006,09,26,00,17,13.30
2006,09,26,00,18,13.30
2006,09,26,00,19,13.30
2006,09,26,00,20,13.30
2006,09,26,00,21,13.30
2006,09,26,00,22,13.30
2006,09,26,00,23,13.30
2006,09,26,00,24,13.30
2006,09,26,00,25,13.30
2006,09,26,00,26,13.30
2006,09,26,00,27,13.30
2006,09,26,00,28,13.20
2006,09,26,00,29,13.20
2006,09,26,00,30,13.20
2006,09,26,00,31,13.20
2006,09,26,00,32,13.20
2006,09,26,00,33,13.20
2006,09,26,00,34,13.20
2006,09,26,00,35,13.20
2006,09,26,00,36,13.20
2006,09,26,00,37,13.20
2006,09,26,00,38,13.10
2006,09,26,00,39,13.00
2006,09,26,00,40,12.90
2006,09,26,00,41,12.80
2006,09,26,00,42,12.80
2006,09,26,00,43,12.80
2006,09,26,00,44,12.70
2006,09,26,00,45,12.70
2006,09,26,00,46,12.70
2006,09,26,00,47,12.70
2006,09,26,00,48,12.80
2006,09,26,00,49,12.80
2006,09,26,00,50,12.80
2006,09,26,00,51,12.80
2006,09,26,00,52,12.80
2006,09,26,00,53,12.80
2006,09,26,00,54,12.80
2006,09,26,00,55,12.80
2006,09,26,00,56,12.80
2006,09,26,00,57,12.80
2006,09,26,00,58,12.80
2006,09,26,00,59,12.80
2006,09,26,01,00,12.80
2006,09,26,01,01,12.90
2006,09,26,01,02,12.90
2006,09,26,01,03,12.90
2006,09,26,01,04,12.90
2006,09,26,01,05,12.90
2006,09,26,01,06,12.90
2006,09,26,01,07,12.90
2006,09,26,01,08,12.80
2006,09,26,01,09,12.80
2006,09,26,01,10,12.80
2006,09,26,01,11,12.80
2006,09,26,01,12,12.80
2006,09,26,01,13,12.80
2006,09,26,01,14,12.80
2006,09,26,01,15,12.70
2006,09,26,01,16,12.70
2006,09,26,01,17,12.70
2006,09,26,01,18,12.70
2006,09,26,01,19,12.80
2006,09,26,01,20,12.80
2006,09,26,01,21,12.80
2006,09,26,01,22,12.80
2006,09,26,01,23,12.90
2006,09,26,01,24,12.90
2006,09,26,01,25,12.90
2006,09,26,01,26,12.90
2006,09,26,01,27,12.90
2006,09,26,01,28,12.90
2006,09,26,01,29,12.90
2006,09,26,01,30,12.90
2006,09,26,01,31,12.90
2006,09,26,01,32,12.90
2006,09,26,01,33,12.90
2006,09,26,01,34,12.80
2006,09,26,01,35,12.80
2006,09,26,01,36,12.80
2006,09,26,01,37,12.80
2006,09,26,01,38,12.80
2006,09,26,01,39,12.70
2006,09,26,01,40,12.70
2006,09,26,01,41,12.70
2006,09,26,01,42,12.70
2006,09,26,01,43,12.70
2006,09,26,01,44,12.70
2006,09,26,01,45,12.70
2006,09,26,01,46,12.70
2006,09,26,01,47,12.70
2006,09,26,01,48,12.70
2006,09,26,01,49,12.70
2006,09,26,01,50,12.70
2006,09,26,01,51,12.60
2006,09,26,01,52,12.60
2006,09,26,01,53,12.60
2006,09,26,01,54,12.60
2006,09,26,01,55,12.60
2006,09,26,01,56,12.60
2006,09,26,01,57,12.60
2006,09,26,01,58,12.60
2006,09,26,01,59,12.60
2006,09,26,02,00,12.60
2006,09,26,02,01,12.50
2006,09,26,02,02,12.50
2006,09,26,02,03,12.50
2006,09,26,02,04,12.50
2006,09,26,02,05,12.50
2006,09,26,02,06,12.50
2006,09,26,02,07,12.50
2006,09,26,02,08,12.50
2006,09,26,02,09,12.50
2006,09,26,02,10,12.50
2006,09,26,02,11,12.50
2006,09,26,02,12,12.50
2006,09,26,02,13,12.40
2006,09,26,02,14,12.40
2006,09,26,02,15,12.40
2006,09,26,02,16,12.40
2006,09,26,02,17,12.30
2006,09,26,02,18,12.30
2006,09,26,02,19,12.30
2006,09,26,02,20,12.30
2006,09,26,02,21,12.30
2006,09,26,02,22,12.20
2006,09,26,02,23,12.20
2006,09,26,02,24,12.20
2006,09,26,02,25,12.20
2006,09,26,02,26,12.20
2006,09,26,02,27,12.20
2006,09,26,02,28,12.20
2006,09,26,02,29,12.30
2006,09,26,02,30,12.30
2006,09,26,02,31,12.30
2006,09,26,02,32,12.30
2006,09,26,02,33,12.30
2006,09,26,02,34,12.30
2006,09,26,02,35,12.30
2006,09,26,02,36,12.30
2006,09,26,02,37,12.30
2006,09,26,02,38,12.30
2006,09,26,02,39,12.30
2006,09,26,02,40,12.30
2006,09,26,02,41,12.30
2006,09,26,02,42,12.30
2006,09,26,02,43,12.30
2006,09,26,02,44,12.30
2006,09,26,02,45,12.30
2006,09,26,02,46,12.20
2006,09,26,02,47,12.20
2006,09,26,02,48,12.20
2006,09,26,02,49,12.20
2006,09,26,02,50,12.20
2006,09,26,02,51,12.20
2006,09,26,02,52,12.20
2006,09,26,02,53,12.20
2006,09,26,02,54,12.30
2006,09,26,02,55,12.30
2006,09,26,02,56,12.30
2006,09,26,02,57,12.30
2006,09,26,02,58,12.30
2006,09,26,02,59,12.30
2006,09,26,03,00,12.30
2006,09,26,03,01,12.20
2006,09,26,03,02,12.20
2006,09,26,03,03,12.20
2006,09,26,03,04,12.20
2006,09,26,03,05,12.20
2006,09,26,03,06,12.20
2006,09,26,03,07,12.10
2006,09,26,03,08,12.10
2006,09,26,03,09,12.00
2006,09,26,03,10,12.00
2006,09,26,03,11,12.00
2006,09,26,03,12,11.90
2006,09,26,03,13,11.90
2006,09,26,03,14,11.80
2006,09,26,03,15,11.80
2006,09,26,03,16,11.80
2006,09,26,03,17,11.80
2006,09,26,03,18,11.80
2006,09,26,03,19,11.90
2006,09,26,03,20,11.90
2006,09,26,03,21,11.90
2006,09,26,03,22,11.90
2006,09,26,03,23,11.90
2006,09,26,03,24,11.90
2006,09,26,03,25,12.00
2006,09,26,03,26,12.00
2006,09,26,03,27,12.00
2006,09,26,03,28,12.00
2006,09,26,03,29,12.00
2006,09,26,03,30,12.00
2006,09,26,03,31,12.00
2006,09,26,03,32,12.00
2006,09,26,03,33,12.00
2006,09,26,03,34,12.00
2006,09,26,03,35,12.00
2006,09,26,03,36,12.00
2006,09,26,03,37,12.00
2006,09,26,03,38,11.90
2006,09,26,03,39,11.90
2006,09,26,03,40,11.90
2006,09,26,03,41,11.90
2006,09,26,03,42,11.90
2006,09,26,03,43,11.90
2006,09,26,03,44,11.90
2006,09,26,03,45,11.90
2006,09,26,03,46,11.80
2006,09,26,03,47,11.80
2006,09,26,03,48,11.80
2006,09,26,03,49,11.80
2006,09,26,03,50,11.70
2006,09,26,03,51,11.70
2006,09,26,03,52,11.70
2006,09,26,03,53,11.80
2006,09,26,03,54,11.80
2006,09,26,03,55,11.80
2006,09,26,03,56,11.80
2006,09,26,03,57,11.80
2006,09,26,03,58,11.80
2006,09,26,03,59,11.80
2006,09,26,04,00,11.80
2006,09,26,04,01,11.70
2006,09,26,04,02,11.60
2006,09,26,04,03,11.40
2006,09,26,04,04,11.40
2006,09,26,04,05,11.30
2006,09,26,04,06,11.20
2006,09,26,04,07,11.20
2006,09,26,04,08,11.10
2006,09,26,04,09,11.20
2006,09,26,04,10,11.20
2006,09,26,04,11,11.20
2006,09,26,04,12,11.30
2006,09,26,04,13,11.40
2006,09,26,04,14,11.40
2006,09,26,04,15,11.40
2006,09,26,04,16,11.40
2006,09,26,04,17,11.40
2006,09,26,04,18,11.40
2006,09,26,04,19,11.50
2006,09,26,04,20,11.60
2006,09,26,04,21,11.60
2006,09,26,04,22,11.60
2006,09,26,04,23,11.60
2006,09,26,04,24,11.70
2006,09,26,04,25,11.70
2006,09,26,04,26,11.70
2006,09,26,04,27,11.80
2006,09,26,04,28,11.80
2006,09,26,04,29,11.80
2006,09,26,04,30,11.90
2006,09,26,04,31,12.00
2006,09,26,04,32,12.20
2006,09,26,04,33,12.30
2006,09,26,04,34,12.30
2006,09,26,04,35,12.40
2006,09,26,04,36,12.30
2006,09,26,04,37,12.30
2006,09,26,04,38,12.30
2006,09,26,04,39,12.20
2006,09,26,04,40,12.20
2006,09,26,04,41,12.10
2006,09,26,04,42,12.10
2006,09,26,04,43,12.00
2006,09,26,04,44,11.90
2006,09,26,04,45,11.80
2006,09,26,04,46,11.70
2006,09,26,04,47,11.60
2006,09,26,04,48,11.60
2006,09,26,04,49,11.60
2006,09,26,04,50,11.40
2006,09,26,04,51,11.40
2006,09,26,04,52,11.40
2006,09,26,04,53,11.40
2006,09,26,04,54,11.20
2006,09,26,04,55,11.20
2006,09,26,04,56,11.20
2006,09,26,04,57,11.10
2006,09,26,04,58,11.10
2006,09,26,04,59,11.10
2006,09,26,05,00,11.00
2006,09,26,05,01,10.90
2006,09,26,05,02,10.90
2006,09,26,05,03,10.90
2006,09,26,05,04,11.00
2006,09,26,05,05,11.10
2006,09,26,05,06,11.10
2006,09,26,05,07,11.10
2006,09,26,05,08,11.10
2006,09,26,05,09,11.10
2006,09,26,05,10,11.10
2006,09,26,05,11,11.10
2006,09,26,05,12,11.10
2006,09,26,05,13,11.20
2006,09,26,05,14,11.20
2006,09,26,05,15,11.20
2006,09,26,05,16,11.20
2006,09,26,05,17,11.20
2006,09,26,05,18,11.20
2006,09,26,05,19,11.20
2006,09,26,05,20,11.20
2006,09,26,05,21,11.30
2006,09,26,05,22,11.30
2006,09,26,05,23,11.30
2006,09,26,05,24,11.30
2006,09,26,05,25,11.30
2006,09,26,05,26,11.40
2006,09,26,05,27,11.40
2006,09,26,05,28,11.40
2006,09,26,05,29,11.40
2006,09,26,05,30,11.40
2006,09,26,05,31,11.40
2006,09,26,05,32,11.40
2006,09,26,05,33,11.40
2006,09,26,05,34,11.40
2006,09,26,05,35,11.40
2006,09,26,05,36,11.40
2006,09,26,05,37,11.60
2006,09,26,05,38,11.60
2006,09,26,05,39,11.60
2006,09,26,05,40,11.60
2006,09,26,05,41,11.50
2006,09,26,05,42,11.60
2006,09,26,05,43,11.60
2006,09,26,05,44,11.60
2006,09,26,05,45,11.60
2006,09,26,05,46,11.60
2006,09,26,05,47,11.60
2006,09,26,05,48,11.60
2006,09,26,05,49,11.60
2006,09,26,05,50,11.60
2006,09,26,05,51,11.50
2006,09,26,05,52,11.40
2006,09,26,05,53,11.40
2006,09,26,05,54,11.40
2006,09,26,05,55,11.40
2006,09,26,05,56,11.40
2006,09,26,05,57,11.30
2006,09,26,05,58,11.20
2006,09,26,05,59,11.20
2006,09,26,06,00,11.20
2006,09,26,06,01,11.20
2006,09,26,06,02,11.20
2006,09,26,06,03,11.20
2006,09,26,06,04,11.20
2006,09,26,06,05,11.20
2006,09,26,06,06,11.20
2006,09,26,06,07,11.20
2006,09,26,06,08,11.20
2006,09,26,06,09,11.20
2006,09,26,06,10,11.20
2006,09,26,06,11,11.30
2006,09,26,06,12,11.30
2006,09,26,06,13,11.40
2006,09,26,06,14,11.50
2006,09,26,06,15,11.60
2006,09,26,06,16,11.60
2006,09,26,06,17,11.60
2006,09,26,06,18,11.60
2006,09,26,06,19,11.40
2006,09,26,06,20,11.40
2006,09,26,06,21,11.30
2006,09,26,06,22,11.30
2006,09,26,06,23,11.20
2006,09,26,06,24,11.10
2006,09,26,06,25,11.10
2006,09,26,06,26,11.10
2006,09,26,06,27,11.10
2006,09,26,06,28,11.20
2006,09,26,06,29,11.20
2006,09,26,06,30,11.20
2006,09,26,06,31,11.10
2006,09,26,06,32,11.10
2006,09,26,06,33,11.10
2006,09,26,06,34,11.10
2006,09,26,06,35,11.00
2006,09,26,06,36,10.90
2006,09,26,06,37,10.90
2006,09,26,06,38,10.90
2006,09,26,06,39,10.90
2006,09,26,06,40,10.90
2006,09,26,06,41,10.90
2006,09,26,06,42,10.90
2006,09,26,06,43,10.90
2006,09,26,06,44,10.90
2006,09,26,06,45,10.90
2006,09,26,06,46,10.90
2006,09,26,06,47,10.90
2006,09,26,06,48,10.90
2006,09,26,06,49,10.90
2006,09,26,06,50,10.90
2006,09,26,06,51,10.90
2006,09,26,06,52,10.90
2006,09,26,06,53,10.90
2006,09,26,06,54,10.90
2006,09,26,06,55,10.90
2006,09,26,06,56,10.90
2006,09,26,06,57,10.90
2006,09,26,06,58,10.90
2006,09,26,06,59,10.90
2006,09,26,07,00,10.90
2006,09,26,07,01,10.90
2006,09,26,07,02,10.90
2006,09,26,07,03,10.90
2006,09,26,07,04,10.90
2006,09,26,07,05,11.00
2006,09,26,07,06,11.10
2006,09,26,07,07,11.10
2006,09,26,07,08,11.10
2006,09,26,07,09,11.10
2006,09,26,07,10,11.10
2006,09,26,07,11,11.10
2006,09,26,07,12,11.10
2006,09,26,07,13,11.10
2006,09,26,07,14,11.10
2006,09,26,07,15,11.10
2006,09,26,07,16,11.10
2006,09,26,07,17,11.00
2006,09,26,07,18,10.90
2006,09,26,07,19,10.90
2006,09,26,07,20,10.90
2006,09,26,07,21,10.90
2006,09,26,07,22,10.90
2006,09,26,07,23,10.90
2006,09,26,07,24,10.90
2006,09,26,07,25,11.00
2006,09,26,07,26,11.00
2006,09,26,07,27,11.10
2006,09,26,07,28,11.10
2006,09,26,07,29,11.10
2006,09,26,07,30,11.10
2006,09,26,07,31,11.10
2006,09,26,07,32,11.10
2006,09,26,07,33,11.10
2006,09,26,07,34,11.10
2006,09,26,07,35,11.10
2006,09,26,07,36,11.20
2006,09,26,07,37,11.20
2006,09,26,07,38,11.20
2006,09,26,07,39,11.30
2006,09,26,07,40,11.30
2006,09,26,07,41,11.30
2006,09,26,07,42,11.40
2006,09,26,07,43,11.40
2006,09,26,07,44,11.40
2006,09,26,07,45,11.40
2006,09,26,07,46,11.40
2006,09,26,07,47,11.50
2006,09,26,07,48,11.60
2006,09,26,07,49,11.60
2006,09,26,07,50,11.70
2006,09,26,07,51,11.70
2006,09,26,07,52,11.70
2006,09,26,07,53,11.70
2006,09,26,07,54,11.60
2006,09,26,07,55,11.60
2006,09,26,07,56,11.70
2006,09,26,07,57,11.70
2006,09,26,07,58,11.80
2006,09,26,07,59,11.90
2006,09,26,08,00,12.00
2006,09,26,08,01,12.00
2006,09,26,08,02,12.10
2006,09,26,08,03,12.20
2006,09,26,08,04,12.30
2006,09,26,08,05,12.40
2006,09,26,08,06,12.50
2006,09,26,08,07,12.50
2006,09,26,08,08,12.60
2006,09,26,08,09,12.70
2006,09,26,08,10,12.80
2006,09,26,08,11,12.90
2006,09,26,08,12,13.00
2006,09,26,08,13,13.10
2006,09,26,08,14,13.10
2006,09,26,08,15,13.20
2006,09,26,08,16,13.30
2006,09,26,08,17,13.30
2006,09,26,08,18,13.40
2006,09,26,08,19,13.50
2006,09,26,08,20,13.50
2006,09,26,08,21,13.60
2006,09,26,08,22,13.70
2006,09,26,08,23,13.70
2006,09,26,08,24,13.80
2006,09,26,08,25,13.80
2006,09,26,08,26,13.80
2006,09,26,08,27,14.00
2006,09,26,08,28,14.20
2006,09,26,08,29,14.20
2006,09,26,08,30,14.30
2006,09,26,08,31,14.30
2006,09,26,08,32,14.40
2006,09,26,08,33,14.40
2006,09,26,08,34,14.40
2006,09,26,08,35,14.40
2006,09,26,08,36,14.50
2006,09,26,08,37,14.50
2006,09,26,08,38,14.60
2006,09,26,08,39,14.60
2006,09,26,08,40,14.70
2006,09,26,08,41,14.80
2006,09,26,08,42,14.80
2006,09,26,08,43,14.80
2006,09,26,08,44,14.90
2006,09,26,08,45,15.00
2006,09,26,08,46,15.10
2006,09,26,08,47,15.20
2006,09,26,08,48,15.30
2006,09,26,08,49,15.30
2006,09,26,08,50,15.30
2006,09,26,08,51,15.30
2006,09,26,08,52,15.30
2006,09,26,08,53,15.30
2006,09,26,08,54,15.30
2006,09,26,08,55,15.30
2006,09,26,08,56,15.30
2006,09,26,08,57,15.20
2006,09,26,08,58,15.20
2006,09,26,08,59,15.20
2006,09,26,09,00,15.30
2006,09,26,09,01,15.40
2006,09,26,09,02,15.40
2006,09,26,09,03,15.50
2006,09,26,09,04,15.60
2006,09,26,09,05,15.60
2006,09,26,09,06,15.70
2006,09,26,09,07,15.80
2006,09,26,09,08,15.90
2006,09,26,09,09,16.00
2006,09,26,09,10,16.10
2006,09,26,09,11,16.10
2006,09,26,09,12,16.20
2006,09,26,09,13,16.30
2006,09,26,09,14,16.40
2006,09,26,09,15,16.50
2006,09,26,09,16,16.60
2006,09,26,09,17,16.70
2006,09,26,09,18,16.70
2006,09,26,09,19,16.80
2006,09,26,09,20,16.80
2006,09,26,09,21,16.90
2006,09,26,09,22,16.90
2006,09,26,09,23,16.90
2006,09,26,09,24,16.90
2006,09,26,09,25,16.90
2006,09,26,09,26,16.90
2006,09,26,09,27,17.00
2006,09,26,09,28,17.10
2006,09,26,09,29,17.10
2006,09,26,09,30,17.20
2006,09,26,09,31,17.20
2006,09,26,09,32,17.30
2006,09,26,09,33,17.30
2006,09,26,09,34,17.30
2006,09,26,09,35,17.40
2006,09,26,09,36,17.40
2006,09,26,09,37,17.40
2006,09,26,09,38,17.50
2006,09,26,09,39,17.50
2006,09,26,09,40,17.70
2006,09,26,09,41,17.80
2006,09,26,09,42,17.90
2006,09,26,09,43,18.00
2006,09,26,09,44,18.10
2006,09,26,09,45,18.20
2006,09,26,09,46,18.20
2006,09,26,09,47,18.30
2006,09,26,09,48,18.30
2006,09,26,09,49,18.30
2006,09,26,09,50,18.30
2006,09,26,09,51,18.20
2006,09,26,09,52,18.20
2006,09,26,09,53,18.30
2006,09,26,09,54,18.30
2006,09,26,09,55,18.40
2006,09,26,09,56,18.50
2006,09,26,09,57,18.60
2006,09,26,09,58,18.70
2006,09,26,09,59,18.90
2006,09,26,10,00,19.00
2006,09,26,10,01,19.10
2006,09,26,10,02,19.10
2006,09,26,10,03,19.10
2006,09,26,10,04,19.10
2006,09,26,10,05,19.10
2006,09,26,10,06,19.10
2006,09,26,10,07,19.10
2006,09,26,10,08,19.20
2006,09,26,10,09,19.20
2006,09,26,10,10,19.20
2006,09,26,10,11,19.20
2006,09,26,10,12,19.30
2006,09,26,10,13,19.30
2006,09,26,10,14,19.40
2006,09,26,10,15,19.40
2006,09,26,10,16,19.40
2006,09,26,10,17,19.40
2006,09,26,10,18,19.40
2006,09,26,10,19,19.40
2006,09,26,10,20,19.40
2006,09,26,10,21,19.40
2006,09,26,10,22,19.40
2006,09,26,10,23,19.40
2006,09,26,10,24,19.40
2006,09,26,10,25,19.40
2006,09,26,10,26,19.40
2006,09,26,10,27,19.50
2006,09,26,10,28,19.60
2006,09,26,10,29,19.60
2006,09,26,10,30,19.60
2006,09,26,10,31,19.70
2006,09,26,10,32,19.80
2006,09,26,10,33,19.90
2006,09,26,10,34,19.90
2006,09,26,10,35,19.90
2006,09,26,10,36,19.90
2006,09,26,10,37,19.90
2006,09,26,10,38,19.90
2006,09,26,10,39,19.90
2006,09,26,10,40,19.90
2006,09,26,10,41,20.00
2006,09,26,10,42,20.10
2006,09,26,10,43,20.10
2006,09,26,10,44,20.10
2006,09,26,10,45,20.20
2006,09,26,10,46,20.20
2006,09,26,10,47,20.20
2006,09,26,10,48,20.30
2006,09,26,10,49,20.30
2006,09,26,10,50,20.40
2006,09,26,10,51,20.40
2006,09,26,10,52,20.40
2006,09,26,10,53,20.40
2006,09,26,10,54,20.40
2006,09,26,10,55,20.40
2006,09,26,10,56,20.40
2006,09,26,10,57,20.40
2006,09,26,10,58,20.40
2006,09,26,10,59,20.40
2006,09,26,11,00,20.50
2006,09,26,11,01,20.50
2006,09,26,11,02,20.50
2006,09,26,11,03,20.50
2006,09,26,11,04,20.50
2006,09,26,11,05,20.40
2006,09,26,11,06,20.50
2006,09,26,11,07,20.50
2006,09,26,11,08,20.50
2006,09,26,11,09,20.60
2006,09,26,11,10,20.60
2006,09,26,11,11,20.70
2006,09,26,11,12,20.80
2006,09,26,11,13,20.80
2006,09,26,11,14,20.80
2006,09,26,11,15,20.80
2006,09,26,11,16,20.80
2006,09,26,11,17,20.80
2006,09,26,11,18,20.80
2006,09,26,11,19,20.80
2006,09,26,11,20,20.80
2006,09,26,11,21,20.90
2006,09,26,11,22,20.90
2006,09,26,11,23,21.00
2006,09,26,11,24,20.90
2006,09,26,11,25,20.90
2006,09,26,11,26,21.00
2006,09,26,11,27,21.00
2006,09,26,11,28,21.10
2006,09,26,11,29,21.10
2006,09,26,11,30,21.10
2006,09,26,11,31,21.00
2006,09,26,11,32,21.00
2006,09,26,11,33,21.00
2006,09,26,11,34,21.00
2006,09,26,11,35,21.10
2006,09,26,11,36,21.00
2006,09,26,11,37,21.10
2006,09,26,11,38,21.10
2006,09,26,11,39,21.10
2006,09,26,11,40,21.20
2006,09,26,11,41,21.20
2006,09,26,11,42,21.20
2006,09,26,11,43,21.10
2006,09,26,11,44,21.10
2006,09,26,11,45,21.00
2006,09,26,11,46,21.00
2006,09,26,11,47,21.00
2006,09,26,11,48,21.00
2006,09,26,11,49,21.00
2006,09,26,11,50,21.00
2006,09,26,11,51,21.00
2006,09,26,11,52,21.00
2006,09,26,11,53,21.00
2006,09,26,11,54,21.10
2006,09,26,11,55,21.10
2006,09,26,11,56,21.20
2006,09,26,11,57,21.30
2006,09,26,11,58,21.30
2006,09,26,11,59,21.30
2006,09,26,12,00,21.30
2006,09,26,12,01,21.30
2006,09,26,12,02,21.20
2006,09,26,12,03,21.10
2006,09,26,12,04,21.00
2006,09,26,12,05,21.00
2006,09,26,12,06,21.10
2006,09,26,12,07,21.20
2006,09,26,12,08,21.20
2006,09,26,12,09,21.30
2006,09,26,12,10,21.30
2006,09,26,12,11,21.30
2006,09,26,12,12,21.30
2006,09,26,12,13,21.30
2006,09,26,12,14,21.30
2006,09,26,12,15,21.30
2006,09,26,12,16,21.30
2006,09,26,12,17,21.30
2006,09,26,12,18,21.30
2006,09,26,12,19,21.20
2006,09,26,12,20,21.20
2006,09,26,12,21,21.20
2006,09,26,12,22,21.20
2006,09,26,12,23,21.20
2006,09,26,12,24,21.20
2006,09,26,12,25,21.30
2006,09,26,12,26,21.30
2006,09,26,12,27,21.40
2006,09,26,12,28,21.40
2006,09,26,12,29,21.40
2006,09,26,12,30,21.50
2006,09,26,12,31,21.60
2006,09,26,12,32,21.60
2006,09,26,12,33,21.60
2006,09,26,12,34,21.60
2006,09,26,12,35,21.60
2006,09,26,12,36,21.60
2006,09,26,12,37,21.60
2006,09,26,12,38,21.60
2006,09,26,12,39,21.50
2006,09,26,12,40,21.40
2006,09,26,12,41,21.30
2006,09,26,12,42,21.30
2006,09,26,12,43,21.30
2006,09,26,12,44,21.30
2006,09,26,12,45,21.30
2006,09,26,12,46,21.30
2006,09,26,12,47,21.30
2006,09,26,12,48,21.30
2006,09,26,12,49,21.30
2006,09,26,12,50,21.30
2006,09,26,12,51,21.30
2006,09,26,12,52,21.40
2006,09,26,12,53,21.50
2006,09,26,12,54,21.50
2006,09,26,12,55,21.60
2006,09,26,12,56,21.60
2006,09,26,12,57,21.60
2006,09,26,12,58,21.60
2006,09,26,12,59,21.50
2006,09,26,13,00,21.40
2006,09,26,13,01,21.40
2006,09,26,13,02,21.30
2006,09,26,13,03,21.30
2006,09,26,13,04,21.40
2006,09,26,13,05,21.40
2006,09,26,13,06,21.40
2006,09,26,13,07,21.40
2006,09,26,13,08,21.50
2006,09,26,13,09,21.60
2006,09,26,13,10,21.60
2006,09,26,13,11,21.60
2006,09,26,13,12,21.60
2006,09,26,13,13,21.60
2006,09,26,13,14,21.60
2006,09,26,13,15,21.60
2006,09,26,13,16,21.70
2006,09,26,13,17,21.80
2006,09,26,13,18,21.80
2006,09,26,13,19,21.90
2006,09,26,13,20,21.90
2006,09,26,13,21,21.80
2006,09,26,13,22,21.80
2006,09,26,13,23,21.80
2006,09,26,13,24,21.90
2006,09,26,13,25,22.00
2006,09,26,13,26,22.00
2006,09,26,13,27,22.10
2006,09,26,13,28,22.10
2006,09,26,13,29,22.00
2006,09,26,13,30,22.00
2006,09,26,13,31,21.90
2006,09,26,13,32,21.90
2006,09,26,13,33,21.80
2006,09,26,13,34,21.70
2006,09,26,13,35,21.70
2006,09,26,13,36,21.70
2006,09,26,13,37,21.70
2006,09,26,13,38,21.70
2006,09,26,13,39,21.70
2006,09,26,13,40,21.80
2006,09,26,13,41,21.80
2006,09,26,13,42,21.80
2006,09,26,13,43,21.70
2006,09,26,13,44,21.70
2006,09,26,13,45,21.70
2006,09,26,13,46,21.70
2006,09,26,13,47,21.70
2006,09,26,13,48,21.80
2006,09,26,13,49,21.80
2006,09,26,13,50,21.80
2006,09,26,13,51,21.90
2006,09,26,13,52,22.00
2006,09,26,13,53,22.10
2006,09,26,13,54,22.10
2006,09,26,13,55,22.10
2006,09,26,13,56,22.00
2006,09,26,13,57,22.00
2006,09,26,13,58,22.00
2006,09,26,13,59,22.00
2006,09,26,14,00,22.00
2006,09,26,14,01,22.10
2006,09,26,14,02,22.10
2006,09,26,14,03,22.20
2006,09,26,14,04,22.20
2006,09,26,14,05,22.30
2006,09,26,14,06,22.30
2006,09,26,14,07,22.30
2006,09,26,14,08,22.40
2006,09,26,14,09,22.30
2006,09,26,14,10,22.30
2006,09,26,14,11,22.40
2006,09,26,14,12,22.50
2006,09,26,14,13,22.60
2006,09,26,14,14,22.60
2006,09,26,14,15,22.60
2006,09,26,14,16,22.60
2006,09,26,14,17,22.60
2006,09,26,14,18,22.60
2006,09,26,14,19,22.70
2006,09,26,14,20,22.70
2006,09,26,14,21,22.70
2006,09,26,14,22,22.70
2006,09,26,14,23,22.70
2006,09,26,14,24,22.70
2006,09,26,14,25,22.70
2006,09,26,14,26,22.60
2006,09,26,14,27,22.70
2006,09,26,14,28,22.70
2006,09,26,14,29,22.60
2006,09,26,14,30,22.60
2006,09,26,14,31,22.50
2006,09,26,14,32,22.60
2006,09,26,14,33,22.60
2006,09,26,14,34,22.70
2006,09,26,14,35,22.70
2006,09,26,14,36,22.60
2006,09,26,14,37,22.70
2006,09,26,14,38,22.70
2006,09,26,14,39,22.80
2006,09,26,14,40,22.90
2006,09,26,14,41,22.90
2006,09,26,14,42,22.90
2006,09,26,14,43,22.90
2006,09,26,14,44,23.10
2006,09,26,14,45,23.20
2006,09,26,14,46,23.20
2006,09,26,14,47,23.10
2006,09,26,14,48,23.20
2006,09,26,14,49,23.20
2006,09,26,14,50,23.20
2006,09,26,14,51,23.30
2006,09,26,14,52,23.30
2006,09,26,14,53,23.40
2006,09,26,14,54,23.40
2006,09,26,14,55,23.40
2006,09,26,14,56,23.40
2006,09,26,14,57,23.40
2006,09,26,14,58,23.30
2006,09,26,14,59,23.30
2006,09,26,15,00,23.40
2006,09,26,15,01,23.40
2006,09,26,15,02,23.40
2006,09,26,15,03,23.50
2006,09,26,15,04,23.60
2006,09,26,15,05,23.60
2006,09,26,15,06,23.60
2006,09,26,15,07,23.60
2006,09,26,15,08,23.60
2006,09,26,15,09,23.70
2006,09,26,15,10,23.70
2006,09,26,15,11,23.60
2006,09,26,15,12,23.60
2006,09,26,15,13,23.50
2006,09,26,15,14,23.40
2006,09,26,15,15,23.50
2006,09,26,15,16,23.60
2006,09,26,15,17,23.60
2006,09,26,15,18,23.60
2006,09,26,15,19,23.60
2006,09,26,15,20,23.60
2006,09,26,15,21,23.50
2006,09,26,15,22,23.40
2006,09,26,15,23,23.40
2006,09,26,15,24,23.40
2006,09,26,15,25,23.40
2006,09,26,15,26,23.40
2006,09,26,15,27,23.50
2006,09,26,15,28,23.60
2006,09,26,15,29,23.50
2006,09,26,15,30,23.60
2006,09,26,15,31,23.60
2006,09,26,15,32,23.70
2006,09,26,15,33,23.70
2006,09,26,15,34,23.60
2006,09,26,15,35,23.50
2006,09,26,15,36,23.30
2006,09,26,15,37,23.40
2006,09,26,15,38,23.40
2006,09,26,15,39,23.30
2006,09,26,15,40,23.30
2006,09,26,15,41,23.40
2006,09,26,15,42,23.40
2006,09,26,15,43,23.40
2006,09,26,15,44,23.40
2006,09,26,15,45,23.40
2006,09,26,15,46,23.50
2006,09,26,15,47,23.60
2006,09,26,15,48,23.60
2006,09,26,15,49,23.60
2006,09,26,15,50,23.60
2006,09,26,15,51,23.60
2006,09,26,15,52,23.60
2006,09,26,15,53,23.60
2006,09,26,15,54,23.60
2006,09,26,15,55,23.50
2006,09,26,15,56,23.40
2006,09,26,15,57,23.40
2006,09,26,15,58,23.40
2006,09,26,15,59,23.40
2006,09,26,16,00,23.30
2006,09,26,16,01,23.30
2006,09,26,16,02,23.30
2006,09,26,16,03,23.30
2006,09,26,16,04,23.30
2006,09,26,16,05,23.30
2006,09,26,16,06,23.40
2006,09,26,16,07,23.40
2006,09,26,16,08,23.40
2006,09,26,16,09,23.40
2006,09,26,16,10,23.40
2006,09,26,16,11,23.30
2006,09,26,16,12,23.30
2006,09,26,16,13,23.30
2006,09,26,16,14,23.30
2006,09,26,16,15,23.30
2006,09,26,16,16,23.30
2006,09,26,16,17,23.30
2006,09,26,16,18,23.30
2006,09,26,16,19,23.30
2006,09,26,16,20,23.30
2006,09,26,16,21,23.30
2006,09,26,16,22,23.30
2006,09,26,16,23,23.40
2006,09,26,16,24,23.30
2006,09,26,16,25,23.30
2006,09,26,16,26,23.30
2006,09,26,16,27,23.20
2006,09,26,16,28,23.20
2006,09,26,16,29,23.20
2006,09,26,16,30,23.20
2006,09,26,16,31,23.10
2006,09,26,16,32,23.10
2006,09,26,16,33,23.10
2006,09,26,16,34,23.10
2006,09,26,16,35,23.10
2006,09,26,16,36,23.10
2006,09,26,16,37,23.10
2006,09,26,16,38,23.10
2006,09,26,16,39,23.10
2006,09,26,16,40,23.10
2006,09,26,16,41,23.20
2006,09,26,16,42,23.20
2006,09,26,16,43,23.20
2006,09,26,16,44,23.20
2006,09,26,16,45,23.10
2006,09,26,16,46,23.10
2006,09,26,16,47,23.00
2006,09,26,16,48,22.90
2006,09,26,16,49,22.90
2006,09,26,16,50,22.90
2006,09,26,16,51,22.90
2006,09,26,16,52,22.90
2006,09,26,16,53,22.90
2006,09,26,16,54,22.90
2006,09,26,16,55,22.90
2006,09,26,16,56,22.90
2006,09,26,16,57,22.90
2006,09,26,16,58,22.90
2006,09,26,16,59,22.90
2006,09,26,17,00,22.90
2006,09,26,17,01,22.90
2006,09,26,17,02,22.90
2006,09,26,17,03,22.90
2006,09,26,17,04,22.80
2006,09,26,17,05,22.80
2006,09,26,17,06,22.80
2006,09,26,17,07,22.80
2006,09,26,17,08,22.90
2006,09,26,17,09,22.90
2006,09,26,17,10,22.90
2006,09,26,17,11,22.90
2006,09,26,17,12,22.90
2006,09,26,17,13,22.90
2006,09,26,17,14,22.90
2006,09,26,17,15,22.90
2006,09,26,17,16,22.90
2006,09,26,17,17,22.80
2006,09,26,17,18,22.80
2006,09,26,17,19,22.80